Regional Weather Roundup
Issued by NWS

Home | Current Version | Previous Version | Text Only | Print | Product List | Glossary Off
Versions: 1 2 3 4 5 6 7 8 9 10 11 12 13 14 15 16 17 18 19 20 21 22 23 24 25 26 27 28 29 30 31 32 33 34 35 36 37 38 39 40 41 42 43 44 45 46 47 48 49 50

000
ASUS45 KSLC 201310
RWRUT

UTAH REGIONAL WEATHER ROUNDUP
NATIONAL WEATHER SERVICE SALT LAKE CITY UT
700 AM MDT MON OCT 20 2014

UTZ001>011-023>025-201400-

NORTHERN UTAH

CITY           SKY/WX    TMP DP  RH WIND       PRES   REMARKS
BRIGHAM CITY   CLEAR     42  33  71 CALM      30.05S
HILL AFB       CLEAR     50  31  49 E21       30.06R
LOGAN          CLEAR     34  30  85 CALM      30.07R
OGDEN          CLEAR     49  32  52 S8        30.04R
PROVO AIRPORT  CLEAR     43  36  75 CALM      30.09R
SALT LAKE CITY MOCLDY    50  39  66 SE6       30.04R
VERNAL         CLEAR     39  32  76 W3        30.17R
WENDOVER       CLEAR     50  36  57 NE5       30.04S
HEBER CITY     CLEAR     32  28  86 CALM      30.15S
WEST JORDAN    PTCLDY    54  41  62 SW6       30.06R

$$

UTZ012>022-026-027-201400-

SOUTHERN/CENTRAL UTAH

CITY           SKY/WX    TMP DP  RH WIND       PRES   REMARKS
BLANDING       CLEAR     47  40  77 N5        30.26R
BRYCE CANYON   CLEAR     31  28  89 W7        30.24R WCI  24
CEDAR CITY     CLEAR     45  36  70 CALM      30.09S
DELTA          CLEAR     47  35  62 CALM      30.07S
HANKSVILLE       N/A     45  32  61 NW3       30.13R
MILFORD        CLEAR     40  32  73 S6        30.08R
MOAB/CYNLANDS  CLOUDY    55  40  56 W3        30.10R
PRICE          CLEAR     43  30  60 NE3       30.16R
ST GEORGE      SUNNY     59  34  38 S5        30.01R
KANAB            N/A     48  34  57 NW13      30.13R

$$

REGIONAL REPORTS     COLORADO/ARIZONA

CITY           SKY/WX    TMP DP  RH WIND       PRES   REMARKS
CRAIG, CO      CLEAR     30  26  85 CALM      30.21R
GRAND JUNCTION PTCLDY    43  32  65 E3        30.14R
RIFLE          CLEAR     38  33  82 CALM      30.20R
MONTROSE       CLEAR     44  37  76 S6        30.21R
CORTEZ         MOCLDY    36  35  96 SW3       30.20S
PAGE, AZ       NOT AVBL
GRAND CANYON   CLEAR     36  32  85 CALM      30.18R
KINGMAN        CLEAR     60  43  53 SE12      29.98S
FLAGSTAFF      CLEAR     34  31  88 CALM      30.19R

$$

REGIONAL REPORTS    NEVADA/IDAHO/WYOMING

CITY           SKY/WX    TMP DP  RH WIND       PRES   REMARKS
LAS VEGAS, NV  CLEAR     66  38  35 SW7       29.87R
ELY            CLEAR     37  28  70 S12       30.11S WCI  29
ELKO           CLEAR     40  27  59 E7        30.02S
POCATELLO, ID  CLEAR     32  30  92 N5        30.04S WCI  27
BURLEY         CLEAR     43  32  65 E7        29.97S
EVANSTON, WY   NOT AVBL
ROCK SPRINGS   PTCLDY    38  28  67 SE7       30.18S WCI  33
KEMMERER       PTCLDY    34  28  80 N7        30.20S WCI  28

$$



USA.gov is the U.S. government's official web portal to all federal, state and local government web resources and services.